Weather History for St. George, UT

Change the Weather History Date:

Tuesday, February 19, 2013

  Actual Average Record
Temperature  
Mean Temperature 45 °F -  
Max Temperature 60 °F 61 °F 77 °F (1930)
Min Temperature 30 °F 34 °F 17 °F (1942)
Degree Days  
Heating Degree Days 20    
Moisture  
Dew Point 16 °F    
Average Humidity 30    
Maximum Humidity 50    
Minimum Humidity 19    
Precipitation  
Precipitation 0.00 in - - ()
Sea Level Pressure  
Sea Level Pressure 29.77 in    
Wind  
Wind Speed 6 mph (SW)    
Max Wind Speed 21 mph    
Max Gust Speed 32 mph    
Visibility 10 miles    
Events      
Averages and records for this station are not official NWS values.
T = Trace of Precipitation, MM = Missing Value Source: NWS Daily Summary

Daily Weather History Graph

Daily Weather History Graph

Search for Another Location

Airport:

Trip Planner

Search our weather history database for the weather conditions in past years. The results will help you decide how hot, cold, wet, or windy it might be!

Date:

Astronomy

Feb. 19, 2013 Rise Set
Actual Time 7:17 AM MST 6:18 PM MST
Civil Twilight 6:51 AM MST 6:45 PM MST
Nautical Twilight 6:21 AM MST 7:15 PM MST
Astronomical Twilight 5:51 AM MST 7:45 PM MST
Moon 12:57 PM MST (2/19) 2:48 AM MST (2/19)
Length of Visible Light 11h 53m
Length of Day
11h 00m
Waxing Gibbous, 68% of the Moon is Illuminated
Feb 19
Waxing Gibbous
Feb 25
Full
Mar 4
Last Quarter
Mar 11
New
Mar 19
First Quarter

Hourly Weather History & Observations

Time (MST) Temp. Windchill Dew Point Humidity Pressure Visibility Wind Dir Wind Speed Gust Speed Precip Events Conditions
12:15 AM 42.8 °F 37.5 °F 10.4 °F 27% 29.96 in 10.0 mi East 9.2 mph - N/A   Clear
12:35 AM 41.0 °F 39.0 °F 10.4 °F 29% 29.96 in 10.0 mi South 3.5 mph - N/A   Clear
12:55 AM 39.2 °F - 10.4 °F 31% 29.96 in 10.0 mi Calm Calm - N/A   Clear
1:15 AM 39.2 °F - 10.4 °F 31% 29.96 in 10.0 mi Calm Calm - N/A   Clear
1:35 AM 39.2 °F 35.9 °F 12.2 °F 33% 29.96 in 10.0 mi SSE 4.6 mph - N/A   Clear
1:55 AM 39.2 °F 37.0 °F 10.4 °F 31% 29.96 in 10.0 mi South 3.5 mph - N/A   Clear
2:15 AM 37.4 °F - 12.2 °F 36% 29.95 in 10.0 mi Calm Calm - N/A   Clear
2:35 AM 39.2 °F - 12.2 °F 33% 29.94 in 10.0 mi Calm Calm - N/A   Clear
2:55 AM 39.2 °F - 10.4 °F 31% 29.94 in 10.0 mi Calm Calm - N/A   Clear
3:15 AM 39.2 °F 34.2 °F 10.4 °F 31% 29.93 in 10.0 mi East 6.9 mph - N/A   Clear
3:35 AM 42.8 °F 37.0 °F 10.4 °F 27% 29.92 in 10.0 mi East 10.4 mph - N/A   Clear
3:55 AM 39.2 °F 32.5 °F 10.4 °F 31% 29.91 in 10.0 mi ESE 10.4 mph - N/A   Clear
4:15 AM 37.4 °F 33.8 °F 10.4 °F 33% 29.91 in 10.0 mi WSW 4.6 mph - N/A   Clear
4:55 AM 35.6 °F - 12.2 °F 38% 29.90 in 10.0 mi Calm Calm - N/A   Clear
5:35 AM 33.8 °F 29.6 °F 12.2 °F 41% 29.89 in 10.0 mi SW 4.6 mph - N/A   Clear
5:55 AM 33.8 °F - 12.2 °F 41% 29.89 in 10.0 mi Calm Calm - N/A   Clear
6:15 AM 35.6 °F 32.8 °F 12.2 °F 38% 29.89 in 10.0 mi SE 3.5 mph - N/A   Clear
6:35 AM 35.6 °F 32.8 °F 12.2 °F 38% 29.89 in 10.0 mi ENE 3.5 mph - N/A   Clear
6:55 AM 33.8 °F 28.6 °F 10.4 °F 38% 29.89 in 10.0 mi NNE 5.8 mph - N/A   Clear
7:15 AM 35.6 °F 32.8 °F 12.2 °F 38% 29.89 in 10.0 mi NNW 3.5 mph - N/A   Clear
7:35 AM 35.6 °F 30.7 °F 12.2 °F 38% 29.89 in 10.0 mi SSW 5.8 mph - N/A   Clear
7:55 AM 30.2 °F 24.3 °F 12.2 °F 47% 29.89 in 10.0 mi SSW 5.8 mph - N/A   Clear
8:35 AM 35.6 °F 32.8 °F 15.8 °F 44% 29.89 in 10.0 mi East 3.5 mph - N/A   Clear
8:55 AM 39.2 °F - 17.6 °F 42% 29.89 in 10.0 mi Calm Calm - N/A   Clear
9:15 AM 41.0 °F - 15.8 °F 36% 29.88 in 10.0 mi Calm Calm - N/A   Clear
9:35 AM 42.8 °F - 15.8 °F 34% 29.87 in 10.0 mi Calm Calm - N/A   Clear
9:55 AM 41.0 °F - 15.8 °F 36% 29.86 in 10.0 mi Calm Calm - N/A   Clear
10:15 AM 44.6 °F 43.1 °F 15.8 °F 31% 29.85 in 10.0 mi NW 3.5 mph - N/A   Clear
10:35 AM 44.6 °F 42.2 °F 15.8 °F 31% 29.84 in 10.0 mi WNW 4.6 mph - N/A   Clear
11:15 AM 50.0 °F - 17.6 °F 28% 29.81 in 10.0 mi Calm Calm - N/A   Clear
11:35 AM 51.8 °F - 17.6 °F 26% 29.80 in 10.0 mi West 4.6 mph - N/A   Clear
11:55 AM 53.6 °F - 17.6 °F 24% 29.79 in 10.0 mi West 3.5 mph - N/A   Clear
12:15 PM 53.6 °F - 17.6 °F 24% 29.77 in 10.0 mi Calm Calm - N/A   Clear
12:35 PM 55.4 °F - 17.6 °F 23% 29.75 in 10.0 mi NW 3.5 mph - N/A   Clear
12:55 PM 57.2 °F - 17.6 °F 21% 29.73 in 10.0 mi NW 5.8 mph - N/A   Clear
1:15 PM 57.2 °F - 17.6 °F 21% 29.71 in 10.0 mi WNW 4.6 mph - N/A   Clear
1:35 PM 59.0 °F - 17.6 °F 20% 29.70 in 10.0 mi WNW 5.8 mph - N/A   Clear
1:55 PM 59.0 °F - 17.6 °F 20% 29.68 in 10.0 mi SW 3.5 mph - N/A   Clear
2:35 PM 60.8 °F - 17.6 °F 19% 29.65 in 10.0 mi WSW 17.3 mph - N/A   Clear
2:55 PM 60.8 °F - 17.6 °F 19% 29.64 in 10.0 mi WSW 17.3 mph - N/A   Clear
3:15 PM 60.8 °F - 17.6 °F 19% 29.63 in 10.0 mi SW 18.4 mph - N/A   Clear
3:35 PM 60.8 °F - 17.6 °F 19% 29.62 in 10.0 mi SSW 15.0 mph - N/A   Clear
3:55 PM 60.8 °F - 17.6 °F 19% 29.62 in 10.0 mi WSW 10.4 mph - N/A   Clear
4:15 PM 60.8 °F - 17.6 °F 19% 29.60 in 10.0 mi SW 17.3 mph - N/A   Clear
5:35 PM 57.2 °F - 17.6 °F 21% 29.60 in 10.0 mi SW 13.8 mph - N/A   Clear
5:55 PM 57.2 °F - 17.6 °F 21% 29.59 in 10.0 mi SW 12.7 mph - N/A   Clear
6:15 PM 57.2 °F - 15.8 °F 20% 29.59 in 10.0 mi SW 19.6 mph - N/A   Clear
6:35 PM 55.4 °F - 15.8 °F 21% 29.60 in 10.0 mi SW 17.3 mph - N/A   Clear
6:55 PM 55.4 °F - 15.8 °F 21% 29.60 in 10.0 mi SW 12.7 mph - N/A   Clear
7:15 PM 53.6 °F - 15.8 °F 22% 29.60 in 10.0 mi SSW 13.8 mph - N/A   Clear
7:35 PM 53.6 °F - 17.6 °F 24% 29.60 in 10.0 mi SSW 19.6 mph 25.3 mph N/A   Clear
7:55 PM 53.6 °F - 19.4 °F 26% 29.60 in 10.0 mi SSW 16.1 mph - N/A   Clear
8:15 PM 53.6 °F - 19.4 °F 26% 29.60 in 10.0 mi SSW 15.0 mph - N/A   Clear
8:35 PM 53.6 °F - 19.4 °F 26% 29.60 in 10.0 mi SSW 16.1 mph 20.7 mph N/A   Clear
8:55 PM 53.6 °F - 21.2 °F 28% 29.59 in 10.0 mi SSW 15.0 mph - N/A   Clear
9:15 PM 51.8 °F - 21.2 °F 30% 29.60 in 10.0 mi SW 8.1 mph 16.1 mph N/A   Clear
9:35 PM 51.8 °F - 21.2 °F 30% 29.60 in 10.0 mi South 4.6 mph - N/A   Clear
9:55 PM 48.2 °F - 21.2 °F 34% 29.60 in 10.0 mi South 4.6 mph - N/A   Clear
10:15 PM 48.2 °F - 21.2 °F 34% 29.60 in 10.0 mi South 6.9 mph - N/A   Scattered Clouds
10:35 PM 51.8 °F - 21.2 °F 30% 29.59 in 10.0 mi South 6.9 mph - N/A   Mostly Cloudy
11:15 PM 50.0 °F - 21.2 °F 32% 29.60 in 10.0 mi SSW 13.8 mph - N/A   Mostly Cloudy
11:35 PM 46.4 °F 38.7 °F 28.4 °F 50% 29.59 in 10.0 mi SW 20.7 mph 32.2 mph N/A   Overcast
11:55 PM 46.4 °F 39.2 °F 28.4 °F 50% 29.59 in 10.0 mi SW 18.4 mph 25.3 mph N/A   Overcast